Regional Weather Roundup
Issued by NWS

Home | Current Version | Previous Version | Graphics & Text | Print | Product List | Glossary Off
Versions: 1 2 3 4 5 6 7 8 9 10 11 12 13 14 15 16 17 18 19 20 21 22 23 24 25 26 27 28 29 30 31 32 33 34 35 36 37 38 39 40 41 42 43 44 45 46 47 48 49

000
ASUS43 KDMX 271507
RWRIA

WEATHER ROUNDUP FOR IOWA
NATIONAL WEATHER SERVICE DES MOINES IA
900 AM CST THU NOV 27 2014

NOTE: "FAIR" INDICATES FEW OR NO CLOUDS BELOW 12,000 FEET WITH NO
SIGNIFICANT WEATHER AND/OR OBSTRUCTIONS TO VISIBILITY.

* - THESE STATIONS ARE NOT NWS STATIONS...THUS NOT UNDER NWS
QUALITY CONTROL.  THEY ALSO DO NOT REPORT WEATHER SUCH
AS PRECIPITATION OR FOG.

IAZ001>003-012>014-020>022-031>034-043>046-271600-
   NORTHWEST IOWA

CITY           SKY/WX    TMP DP  RH WIND       PRES   REMARKS
CARROLL *      SUNNY      0  -9  65 N9        30.51S WCI -16
CHEROKEE *     MOSUNNY   -2  -8  78 N6        30.51S WCI -14
DENISON *      SUNNY      5  -9  51 VRB5      30.50R WCI  -4
LE MARS *      PTSUNNY    1  -6  71 CALM      30.54R
ORANGE CITY *  SUNNY      0  -8  71 CALM      30.48R
SHELDON *      SUNNY     -4 -11  71 NE7       30.47F WCI -18
SIOUX CITY     CLOUDY     8  -8  48 E3        30.55R
SPENCER        PTSUNNY   -6 -11  79 NW3       30.50R
STORM LAKE *   SUNNY     -2 -11  65 N8        30.49R WCI -17
$$

IAZ055>058-069>071-079>083-090>094-271600-
   SOUTHWEST IOWA

CITY           SKY/WX    TMP DP  RH WIND       PRES   REMARKS
ATLANTIC *     SUNNY      7  -4  61 CALM      30.53R
AUDUBON *      SUNNY      3  -6  66 N3        30.50R
CLARINDA *     CLOUDY    16   9  73 N7        30.56R WCI   6
COUNCIL BLFS * CLOUDY    14   1  57 N3        30.51R
CRESTON *      SUNNY      7  -2  66 N8        30.50R WCI  -6
HARLAN  *      SUNNY      7  -9  47 NW5       30.56R WCI  -2
LAMONI         SUNNY     13   6  74 N8        30.49S WCI   2
RED OAK *      CLOUDY    14   5  67 N6        30.54R WCI   5
SHENANDOAH *   CLOUDY    18   7  62 CALM      30.56R
$$

IAZ047>049-059>061-072>074-084-271600-
   CENTRAL IOWA

CITY           SKY/WX    TMP DP  RH WIND       PRES   REMARKS
AMES           MOSUNNY   -1  -8  72 NW10      30.52R WCI -17
ANKENY *       SUNNY      1  -8  66 N12       30.53S WCI -15
CHARITON *     SUNNY      9   1  72 NW6       30.50S WCI  -1
DES MOINES     MOSUNNY    5  -4  66 NW7       30.53R WCI  -7
GRINNELL*      MOSUNNY    1  -4  78 NW9       30.49R WCI -14
KNOXVILLE *    SUNNY      7  -2  66 NW12      30.50S WCI  -9
MARSHALLTOWN   MOSUNNY    0  -6  76 NW8       30.49R WCI -14
PELLA *        SUNNY      5  -2  72 NW8       30.53R WCI  -8
PERRY *          N/A      1  -6  71 NW7       30.53R WCI -11
$$

IAZ004>006-015-016-023>025-035-036-271600-
   NORTH CENTRAL IOWA

CITY           SKY/WX    TMP DP  RH WIND       PRES   REMARKS
ALGONA *       SUNNY     -8 -15  71 N8        30.51R WCI -23
CLARION *      SUNNY     -9 -15  77 N10       30.50S WCI -28
ESTHERVILLE    MOSUNNY  -10 -13  86 NW7       30.50R WCI -25
FORT DODGE *   MOSUNNY   -4  -9  77 NW3       30.52R
MASON CITY     PTSUNNY   -7 -11  83 NW13      30.50R WCI -27
FOREST CITY *  SUNNY     -6  -9  84 NW7       30.50R WCI -20
IOWA FALLS *     N/A      0  -8  71 NW10      30.49R WCI -17
$$

IAZ007>011-017>019-026>030-037>042-050>054-066-271600-
   NORTHEAST IOWA

CITY           SKY/WX    TMP DP  RH WIND       PRES   REMARKS
CEDAR RAPIDS   SUNNY      9   4  80 NW15      30.45R WCI  -8
CHARLES CITY * SUNNY      0  -9  65 N10       30.48R WCI -17
CLINTON *      CLOUDY    21  16  79 NW17      30.42R WCI   7
DECORAH *      SUNNY      5  -2  72 NW13      30.43R WCI -12
DUBUQUE        CLOUDY    19  14  81 NW14      30.38R WCI   6
MONTICELLO *   SUNNY     14   9  79 NW12      30.42R WCI   0
OELWEIN *      SUNNY      5  -2  72 NW15      30.45R WCI -13
WATERLOO       MOSUNNY    2  -4  76 NW15      30.48R WCI -17
$$

IAZ064-065-067-068-078-271600-
   EAST CENTRAL IOWA

CITY           SKY/WX    TMP DP  RH WIND       PRES   REMARKS
DAVENPORT      LGT SNOW  20  14  77 NW18      30.41R WCI   5
IOWA CITY      SUNNY     12   6  77 NW14      30.48R WCI  -3
MT. PLEASANT * MOSUNNY   16  10  79 W13       30.48R WCI   2
MUSCATINE *    CLOUDY    19  14  79 NW15      30.47R WCI   5
QUAD CITIES    LGT SNOW  21  16  81 W15       30.42R WCI   8
$$

IAZ062-063-075>077-085>089-095>099-271600-
   SOUTHEAST IOWA

CITY           SKY/WX    TMP DP  RH WIND       PRES   REMARKS
BURLINGTON     MOSUNNY   18  12  77 NW13G24   30.46R WCI   5
FAIRFIELD *    MOSUNNY   10   3  72 NW12G18   30.49R WCI  -4
FORT MADISON * PTSUNNY   19  16  86 NW10      30.48R WCI   8
KEOKUK *       PTSUNNY   21  16  79 NW13G21   30.47R WCI   9
OSKALOOSA *      N/A      7   1  78 NW13      30.51R WCI  -9
CENTERVILLE *  MOSUNNY   16  12  86 W7        30.51R WCI   6
OTTUMWA        MOSUNNY   10   3  73 NW13      30.50R WCI  -5
WASHINGTON *   MOSUNNY   12   9  85 W14       30.48R WCI  -3
$$

ABBREVIATIONS USED IN REMARKS
   TC - TEMPERATURES IN CELSIUS
  WCI - WIND CHILL INDEX
   HX - HEAT INDEX
  VSB - VISIBILITY
$$



USA.gov is the U.S. government's official web portal to all federal, state and local government web resources and services.